Location: doobydoo
(53.3403°N, 2.6908°W)
Time: 19:52:43
(UTC+00:00)

ISS - Pass Details

Date: 26 November 2021
Orbit: 413 x 422 km, 51.6° (Epoch: 18 January)

Event Time Altitude Azimuth Distance (km) Brightness Sun altitude
Rises 18:13:59 0° 255° (WSW) 2,382 1.7 -19.1°
Reaches altitude 10° 18:16:06 10° 252° (WSW) 1,516 0.3 -19.4°
Maximum altitude 18:19:28 61° 171° (S) 488 -3.5 -19.9°
Enters shadow 18:19:33 60° 162° (SSE) 489 -3.6 -19.9°
